Meteosat 10

operational
NORAD ID: 38552 Int'l Des: 2012-035 Owner: EUMET Country: I-EUM
HEOCIRCULARGSO

Meteosat 10について

説明を読み込み中...

リアルタイム位置

3D地球を読み込み中...

次回通過

高度履歴

Altitude vs Time

uPlot chart will show altitude changes over time

軌道要素

1 38552U 12035B 26061.39350299 -.00000019 00000-0 00000+0 0 9999
2 38552 4.4189 61.4711 0002471 291.5108 309.0941 1.00276803 49782
Epoch: Mar 2, 2026 • Age: 41 hours

現在のステータス

高度 35780.5 km
速度 3.08 km/s
衛星直下点 -0.16°S, 0.31°E
打ち上げ日 Jul 5, 2012
運用期間 13.6 years
タイプ weather

技術仕様

分類 Payload
質量 2035.00 kg
乾燥質量 1000.00 kg
総質量 2035.00 kg
長さ 2.40 m
直径 3.20 m
スパン 3.70 m
形状 Cyl
製造者 THALES
バスタイプ MSG
フェーズステータス In Orbit
所有者/国 EUMET/I-EUM

大規模コンステレーション

Loading constellations...